This is the latest recevied weather packets stored in our database for station/object KP4FJC. If no packets are shown the sender has not sent any weather packets the latest 10 day(s).
| Time | Temp. | Humidity | Pressure | Rain* | Wind** | Luminosity | Snow |
|---|---|---|---|---|---|---|---|
| 1778016810 | 31.11° C | 60% | 1017 hPa | 0 mm | - | 118 W/m² | - |
| 1778016505 | 31.67° C | 58% | 1017.1 hPa | 0 mm | - | 132 W/m² | - |
| 1778016203 | 31.11° C | 58% | 1016.7 hPa | 0 mm | - | 146 W/m² | - |
| 1778015898 | 31.11° C | 58% | 1016.8 hPa | 0 mm | - | 163 W/m² | - |
| 1778015597 | 31.11° C | 58% | 1016.8 hPa | 0 mm | - | 182 W/m² | - |
| 1778015293 | 31.11° C | 57% | 1016.7 hPa | 0 mm | - | 200 W/m² | - |
| 1778014990 | 31.67° C | 56% | 1016.5 hPa | 0 mm | - | 219 W/m² | - |
| 1778014687 | 31.67° C | 55% | 1016.5 hPa | 0 mm | - | 239 W/m² | - |
| 1778014385 | 31.67° C | 55% | 1016.3 hPa | 0 mm | - | 260 W/m² | - |
| 1778014081 | 31.67° C | 56% | 1016.3 hPa | 0 mm | - | 282 W/m² | - |
| 1778013779 | 31.67° C | 56% | 1016.4 hPa | 0 mm | - | 307 W/m² | - |
| 1778013476 | 31.67° C | 56% | 1016.4 hPa | 0 mm | - | 329 W/m² | - |
| 1778013173 | 31.67° C | 56% | 1016.6 hPa | 0 mm | - | 349 W/m² | - |
| 1778012869 | 31.67° C | 57% | 1016.9 hPa | 0 mm | - | 370 W/m² | - |
| 1778012565 | 32.78° C | 57% | 1016.8 hPa | 0 mm | - | 390 W/m² | - |
| 1778012262 | 31.67° C | 56% | 1016.6 hPa | 0 mm | - | 411 W/m² | - |
| 1778011960 | 31.67° C | 56% | 1016.6 hPa | 0 mm | - | 429 W/m² | - |
| 1778011658 | 32.22° C | 55% | 1016.4 hPa | 0 mm | - | 453 W/m² | - |
| 1778011355 | 32.78° C | 56% | 1016.4 hPa | 0 mm | - | 473 W/m² | - |
| 1778011050 | 32.78° C | 55% | 1016.7 hPa | 0 mm | - | 495 W/m² | - |
| 1778010748 | 31.67° C | 59% | 1016.6 hPa | 0 mm | - | 514 W/m² | - |
| 1778010445 | 31.67° C | 59% | 1016.6 hPa | 0 mm | - | 533 W/m² | - |
| 1778010141 | 32.22° C | 58% | 1016.7 hPa | 0 mm | - | 555 W/m² | - |
| 1778009837 | 31.67° C | 58% | 1016.7 hPa | 0 mm | - | 573 W/m² | - |
| 1778009535 | 31.67° C | 57% | 1016.8 hPa | 0 mm | - | 593 W/m² | - |
* Rain latest hour (hover to see other rain measurements)
** Current wind speed in m/s (hover to see current wind gust speed)